Mauston, WI (53948)

3:55 AM CDT on July 26, 2016 (GMT -0500)
Juneau County Weather | | Change Station

Elev 873 ft 43.80 °N, 90.07 °W | Updated 28 seconds ago

Clear
Clear
64.2 °F
Feels Like 64.2 °F
N
0.0
Wind Variable Wind from WNW
Gusts 0.0 mph

Today
High -- | Low -- °F
--% Chance of Precip.
Yesterday
High -- | Low -- °F
Precip. -- in
Pressure 30.06 in
Visibility 1.8 miles
Clouds Clear
Dew Point 63 °F
Humidity 97%
Rainfall 0.00 in
Snow Depth Not available.
5:43 AM 8:29 PM
Waning Gibbous, 57% visible
SPECI KVOK 260843Z AUTO 13002KT 1 3/4SM R27/3000FT BR CLR 14/13 A3006 RMK AO2 VIS 1 1/2V2
Pressure 30.06 in
Visibility 1.8 miles
Clouds Clear
Dew Point 63 °F
Humidity 97%
Rainfall 0.00 in
Snow Depth Not available.
5:43 AM 8:29 PM
Waning Gibbous, 57% visible
SPECI KVOK 260843Z AUTO 13002KT 1 3/4SM R27/3000FT BR CLR 14/13 A3006 RMK AO2 VIS 1 1/2V2

10-Day Weather Forecast

Almanac

Astronomy

Jul. 26, 2016 Rise Set
Actual Time
Civil Twilight
Nautical Twilight
Astronomical Twilight
Moon
Length of Visible Light
Length of Day
Tomorrow will be .
, % of the Moon is Illuminated

Today's Extremes

State Highs State Lows

Community

WunderPhotos

Upload Photos

1,927,556 photos uploaded!

WunderBlog® & News

Nearby

Air Quality

  Air Quality AQ Index Pollutant
Not available.

Snow Depth

Station Depth Elevation

Earthquake Activity

City Distance Mag. Time & Date
Minimum magnitude displayed is 2.5.

Coastal Water Temperatures

Place Temperature

Stations

Nearby Weather Stations

Station Location Temp. Windchill Dew Point Humidity Wind Precip. Elev Updated Type
                   

Watches & Warnings

There are currently no watches in effect.